Terminal Aerodrome Forecast
Issued by NWS

Home | Current Version | Previous Version | Text Only | Print | Product List | Glossary On
Versions: 1 2 3 4 5 6 7 8 9 10 11 12 13 14 15 16 17
711
FTUS46 KMTR 292339
TAFSJC
TAF
KSJC 292339Z 3000/3024 32011KT P6SM FEW009 SCT100 BKN160
     FM300100 30015KT P6SM FEW009 SCT100 BKN160
     FM300500 31006KT P6SM OVC011
     FM301500 30006KT P6SM BKN010 OVC015
     FM302100 32011KT P6SM FEW010 SCT180=

USA.gov is the U.S. government's official web portal to all federal, state and local government web resources and services.